Helicity
11 2 -11 9 29 46 55 55 74 88 93 99 85 81 80 86 97 93 68 52 46 49 60 67 67 61 55 52 52 52 51 39 37 35 33 41 47 53 64 59 36 48 55
24 -5 -13 18 43 54 59 64 81 91 95 81 72 66 73 88 73 52 44 39 41 51 59 63 59 59 50 43 36 25 23 18 19 23 32 27 48 63 60 51 43 39 40
52 6 -1 17 42 48 58 87 92 74 68 63 63 64 71 57 39 34 37 36 43 48 50 54 55 50 48 45 36 30 27 24 22 26 24 24 25 47 48 48 40 35 45
56 7 0 8 28 42 61 71 61 67 75 77 70 62 42 24 21 28 36 30 35 44 45 48 50 49 42 40 43 46 40 32 28 33 23 23 29 47 49 65 43 46 67
-2 -4 -1 14 22 39 56 51 62 74 65 40 27 18 9 11 16 20 18 13 21 31 36 45 48 47 44 41 45 45 45 45 35 21 32 34 28 42 60 62 63 44 61
-10 -12 0 17 30 41 44 57 59 41 15 0 2 6 3 2 7 12 9 10 24 33 35 38 39 43 41 39 45 46 44 49 31 46 33 34 37 49 54 66 70 70 74
-24 -22 -4 16 26 34 43 39 26 9 1 -1 -7 -14 -12 -1 5 8 8 7 13 20 28 33 31 29 25 22 25 30 35 39 45 48 47 41 37 46 50 58 66 74 68
-18 -18 -3 7 20 30 29 27 13 3 -8 -14 -24 -21 -13 -4 5 7 1 7 19 23 26 25 23 17 11 6 4 -2 -4 5 15 33 41 35 43 54 48 45 52 54 61
-23 -15 -9 1 18 22 23 5 -4 -12 -20 -25 -24 -18 -7 1 7 10 14 14 10 11 17 20 18 14 10 4 1 -6 -10 -10 -10 -4 7 25 52 43 46 46 42 50 51
-27 -21 -6 9 11 -2 -4 -15 -17 -23 -24 -22 -14 -1 6 14 20 22 23 22 16 11 10 16 20 24 31 26 20 12 3 -9 5 1 -1 8 28 48 59 54 52 44 46
-27 -14 10 -4 -19 -25 -27 -31 -34 -28 -23 -12 0 11 15 15 18 25 27 30 40 46 48 57 67 67 42 41 43 30 4 13 19 17 12 27 28 28 33 48 62 68 58
-21 -10 -12 -28 -35 -40 -47 -47 -46 -31 -29 -16 -4 8 13 20 26 28 43 63 103 121 120 114 106 85 66 48 30 17 6 18 29 29 33 46 55 45 36 31 34 44 60
-5 -21 -40 -47 -50 -56 -53 -49 -31 -27 -18 -8 -5 16 25 36 41 54 80 99 111 134 110 106 102 96 97 65 36 20 22 14 20 31 46 64 69 65 65 56 42 33 35
-37 -31 -49 -67 -47 -46 -37 -28 -16 -12 -6 3 25 44 44 66 100 126 139 145 150 133 137 133 113 109 115 101 72 46 28 13 5 16 38 65 72 81 76 77 80 85 69
-47 -28 -43 -27 -37 -29 -13 -15 -16 -4 13 33 52 77 90 112 140 154 166 166 165 158 149 141 136 133 125 110 91 62 35 26 32 38 43 76 110 128 133 135 127 117 108
-22 -8 -2 7 7 1 -5 3 -4 1 28 92 105 130 143 146 154 161 164 181 177 165 155 144 131 121 110 104 98 83 54 55 58 74 78 91 154 189 201 205 204 194 171
-5 57 98 87 79 69 55 41 54 45 105 158 165 171 180 173 182 176 180 188 177 162 148 142 140 116 103 101 87 74 65 84 99 114 127 123 130 159 192 220 229 229 219
56 134 206 223 194 181 137 24 23 32 148 123 134 143 167 169 164 164 173 176 165 151 150 132 103 103 120 113 102 98 105 117 119 141 166 164 157 146 149 201 216 205 194
111 215 323 338 338 314 174 54 43 38 98 114 113 111 137 153 170 174 167 141 128 106 82 80 100 108 119 129 122 109 119 130 145 176 203 185 167 157 147 169 180 168 199
188 300 418 465 342 223 95 112 101 94 89 87 114 142 164 174 159 140 142 131 85 76 86 100 104 92 70 69 65 84 78 94 157 179 204 189 192 158 130 134 114 119 149
260 264 269 343 232 101 76 37 45 77 101 125 142 172 179 162 147 125 89 75 69 85 74 63 68 100 102 112 52 70 21 9 73 124 181 159 148 142 128 106 105 103 108
124 141 128 84 50 -2 -27 -36 15 59 88 136 147 149 146 126 81 50 40 48 55 65 77 73 68 52 57 85 88 83 137 124 132 156 123 152 137 137 104 91 103 89 102
31 4 -17 -6 -44 -80 -43 27 88 106 111 110 123 155 154 95 86 79 72 69 68 62 73 65 52 69 100 103 139 164 195 215 216 125 142 113 104 85 66 63 57 97 108
32 -21 -46 -37 -37 3 53 57 82 69 88 129 170 182 147 125 107 86 82 90 93 85 72 73 85 107 111 153 147 133 138 125 123 117 85 55 83 60 78 78 53 53 68
14 -29 14 53 96 85 78 77 80 118 145 167 171 156 125 112 92 93 106 102 88 88 96 101 112 90 92 97 134 137 111 103 82 112 96 81 64 67 60 74 80 62 78
31 80 185 133 133 113 113 101 118 142 152 161 153 135 129 121 116 104 103 95 91 110 139 161 158 143 105 94 123 98 96 101 79 73 76 87 60 68 86 59 66 67 44
Wind_Speed
14 22 26 33 35 36 36 36 37 37 37 37 36 35 38 41 42 43 43 44 45 46 47 48 49 51 51 51 52 52 51 51 48 48 46 45 42 42 42 42 40 38 38
19 22 28 32 35 35 35 35 35 34 35 34 32 33 37 40 41 43 44 46 47 47 48 49 50 51 51 51 52 52 52 52 50 49 47 42 41 41 41 42 41 39 39
17 24 29 33 36 34 33 32 32 33 33 31 29 31 34 37 40 42 44 46 47 48 49 50 51 51 52 53 53 53 53 53 52 50 48 43 39 42 41 41 41 42 42
19 33 34 34 34 32 30 30 30 29 29 27 28 30 33 36 38 41 43 45 46 47 48 49 50 51 52 53 54 55 54 53 52 51 46 45 41 43 43 43 44 44 45
32 34 34 32 31 30 29 28 27 26 27 28 31 33 35 37 39 41 43 44 46 47 49 50 50 50 52 53 55 56 56 55 53 50 46 46 43 44 45 46 46 45 46
35 32 33 31 29 28 28 26 26 28 30 32 34 35 37 38 40 41 43 44 46 48 50 51 52 53 53 55 57 56 56 56 53 51 48 46 44 47 48 49 47 47 46
34 32 30 29 26 26 25 25 25 27 29 31 33 35 37 38 40 42 44 45 47 50 51 53 53 54 54 56 57 58 57 56 54 52 50 48 47 49 49 48 47 47 47
32 29 26 25 22 22 22 24 28 29 30 33 35 36 37 39 41 42 44 45 46 48 50 51 53 54 55 56 56 58 58 58 56 53 53 51 52 53 51 49 49 49 49
25 22 23 19 16 16 22 26 27 28 30 32 33 34 36 38 40 42 44 45 46 48 49 51 53 54 55 56 57 58 58 58 56 55 55 54 58 57 55 54 51 51 52
16 18 17 12 13 21 25 26 27 28 30 30 31 33 35 37 39 40 43 45 48 49 50 52 52 53 54 57 59 60 60 59 59 58 56 56 60 60 58 57 56 55 54
20 10 13 9 25 25 24 24 26 27 28 29 29 31 33 35 36 38 40 43 46 49 51 52 52 52 54 56 60 62 61 61 61 61 60 65 65 64 62 61 61 60 59
46 36 38 30 28 23 21 23 22 22 24 25 27 29 30 33 34 35 38 42 45 48 51 52 53 53 54 55 58 61 62 64 63 63 62 68 67 68 67 67 66 65 64
40 37 35 31 26 21 18 21 20 20 22 26 28 30 31 33 34 36 38 42 45 49 50 51 52 53 55 57 61 63 64 66 65 64 65 70 70 69 68 68 70 72 71
34 36 31 21 15 15 16 18 19 19 22 27 30 34 34 35 35 38 40 43 46 49 50 52 53 56 58 61 64 67 68 69 70 68 67 71 72 71 70 70 70 70 72
32 35 26 20 19 19 19 20 19 21 26 32 34 34 34 34 35 36 40 43 47 49 52 54 56 59 62 65 68 71 72 73 73 71 70 72 71 70 70 70 71 72 72
31 23 18 16 18 20 21 25 25 30 31 33 33 33 34 33 34 36 40 45 49 52 53 55 59 62 65 68 72 73 75 75 75 74 71 68 69 69 69 71 72 73 74
14 13 14 17 19 21 25 30 32 35 41 40 32 33 34 34 35 39 43 47 51 53 56 60 65 67 69 71 76 75 74 76 75 70 68 68 69 70 72 74 77 78 78
8 11 14 15 18 22 26 30 33 41 38 28 31 34 34 35 38 42 46 50 52 56 63 67 71 74 74 77 80 77 77 76 72 66 68 70 72 73 74 78 82 83 83
10 9 11 14 16 23 32 40 31 35 30 29 31 32 34 38 42 44 48 52 57 62 67 70 72 74 76 79 80 75 80 77 68 68 73 74 75 76 78 82 85 85 87
16 14 11 14 17 25 33 25 27 27 30 31 33 34 37 40 43 48 53 58 62 66 69 71 72 72 72 79 80 79 81 72 63 68 75 75 76 79 80 85 87 86 88
21 18 12 11 24 33 26 26 27 29 32 35 36 38 40 43 48 53 57 61 64 67 68 68 70 74 75 80 80 84 74 59 69 71 78 79 80 79 83 84 86 87 87
15 13 18 21 23 22 23 28 32 32 36 37 39 41 42 45 50 55 58 61 62 64 66 68 71 75 74 76 83 84 86 83 66 84 75 81 78 85 84 86 90 88 88
20 19 19 23 23 21 24 30 33 36 37 41 41 42 44 48 53 56 58 60 63 65 68 68 70 74 80 74 74 78 90 93 100 75 83 75 85 83 83 85 87 85 84
24 23 23 22 22 24 24 32 39 45 46 45 44 46 50 54 57 59 61 63 65 66 68 68 68 72 74 81 74 65 68 78 90 102 80 87 78 83 84 82 82 79 78
20 21 22 22 25 26 33 39 44 46 47 45 47 51 56 59 60 63 63 66 66 67 68 69 68 68 68 73 75 75 75 75 75 83 100 88 82 79 75 76 76 75 73
20 22 25 24 30 32 36 41 43 47 48 50 54 60 63 64 64 65 64 66 67 69 67 67 67 68 69 70 69 71 72 76 76 74 83 83 86 81 75 74 74 73 68
Wind_Direction
90 88 94 95 91 86 81 78 74 67 62 59 54 45 45 46 44 38 35 32 30 29 27 22 19 18 16 16 15 12 6 2 353 345 348 350 353 354 356 358 358 354 353
103 92 95 96 94 89 85 80 71 62 60 56 46 41 41 42 42 43 39 38 36 33 29 26 24 21 18 16 9 6 3 360 356 352 352 11 9 1 2 2 359 355 346
102 95 96 98 96 91 86 74 64 61 58 45 35 30 29 37 41 40 39 36 34 31 28 26 23 21 16 13 9 4 0 359 356 356 358 5 12 2 5 2 1 352 338
101 105 102 99 95 88 79 71 64 53 44 32 24 29 38 42 41 39 36 34 31 29 27 24 20 16 15 14 9 3 358 356 353 351 3 3 6 355 359 356 353 346 336
105 105 102 96 93 86 77 68 53 42 39 40 46 48 49 49 44 39 37 33 29 27 23 21 19 17 14 11 8 2 358 354 353 353 357 356 358 355 352 350 351 353 338
109 105 102 97 90 83 76 62 54 51 55 57 57 55 53 48 41 38 35 32 31 28 25 22 20 17 13 8 3 1 357 353 356 356 355 355 352 345 342 342 344 343 340
111 104 98 93 85 78 67 61 56 57 57 54 55 54 52 46 42 39 36 35 32 28 25 23 21 18 15 11 7 2 358 355 352 352 350 349 347 341 340 340 340 339 336
107 99 91 87 75 69 63 63 69 65 62 62 62 59 52 47 43 40 37 35 30 28 22 20 16 13 9 8 8 5 1 358 356 352 344 341 338 333 334 335 333 332 332
96 90 88 74 57 47 62 73 67 64 63 63 59 54 49 43 39 35 32 25 22 19 16 14 11 11 7 4 -0 359 358 357 356 352 345 341 331 327 325 324 325 327 324
82 84 72 45 44 73 78 78 74 72 70 61 56 49 44 40 36 32 27 20 13 9 7 5 6 6 6 1 358 355 352 351 347 344 342 338 328 325 322 319 317 318 318
88 51 286 9 87 83 76 74 76 75 72 63 51 43 39 38 35 26 22 17 15 10 6 6 5 4 359 357 354 352 351 349 344 339 336 327 320 315 312 312 313 313 312
128 119 123 103 96 79 69 74 66 58 54 47 36 33 30 28 24 20 17 12 8 8 6 4 2 0 357 355 352 349 348 345 341 336 333 326 323 315 308 303 302 305 307
122 119 114 102 89 73 59 67 50 40 31 26 16 14 17 16 13 13 11 8 3 1 2 360 358 356 353 349 346 345 342 340 339 336 331 324 321 319 315 311 303 295 296
112 115 106 79 47 51 34 40 39 32 19 14 5 3 5 7 10 6 6 6 1 360 358 356 352 349 345 343 341 339 338 335 333 332 329 324 321 318 314 313 311 308 301
109 113 96 75 60 42 26 13 13 0 350 344 350 3 7 9 9 8 7 5 359 356 353 350 347 344 340 338 336 334 333 331 330 329 326 324 322 321 318 315 312 309 307
120 99 68 49 30 15 360 345 338 330 332 338 351 4 6 10 12 9 5 360 355 353 351 347 343 339 336 334 332 332 330 329 328 327 326 325 325 323 320 318 315 312 308
84 54 36 25 21 12 352 343 338 329 332 324 2 18 9 11 9 5 360 355 352 350 347 342 338 335 332 332 329 330 330 328 328 329 329 326 324 323 320 317 313 310 308
33 31 18 11 14 15 5 351 341 335 5 30 22 18 18 14 7 0 355 352 351 347 342 338 335 332 331 330 328 328 328 327 328 329 328 325 322 320 318 317 313 309 306
15 18 3 7 359 353 337 343 339 360 20 28 27 25 19 11 4 0 357 353 348 343 339 337 336 335 332 331 330 329 327 326 326 325 323 322 321 319 317 314 312 309 306
350 351 358 353 355 349 339 5 22 35 31 27 19 17 12 8 4 358 352 348 345 342 340 339 338 338 335 333 330 328 327 326 326 325 323 322 320 318 316 313 310 307 304
341 344 337 349 341 355 34 36 26 15 14 14 16 12 8 3 357 352 348 346 345 343 342 342 340 338 335 335 331 328 329 329 324 323 323 320 318 318 315 313 310 307 304
21 33 3 45 32 43 45 28 16 17 9 8 7 5 4 1 356 352 350 347 346 344 342 341 340 337 336 336 331 328 323 323 324 322 321 321 319 317 314 311 309 306 303
38 37 36 41 49 44 27 17 16 7 4 358 357 358 358 356 353 350 348 345 343 342 340 340 339 337 334 335 336 329 323 319 320 324 321 321 319 319 317 314 310 305 302
47 49 42 31 25 6 11 355 352 346 346 348 351 351 348 346 345 343 342 342 341 340 339 338 338 337 336 331 333 332 329 324 321 316 320 319 321 318 317 316 315 309 305
47 39 21 13 358 356 347 342 343 348 350 353 350 346 342 340 339 340 339 339 338 338 337 336 336 336 336 333 331 329 327 326 324 320 316 319 320 320 318 319 318 316 310
12 8 358 2 352 354 351 347 348 348 348 346 343 339 338 338 339 338 337 336 335 335 335 336 335 334 333 333 331 329 327 326 326 325 321 321 319 321 319 317 317 317 317